Temp
62 62 62 63 63 62 63 63 63 63 64 65 64 63 62 62 62 62 62 62 62 62 61 61 61 61 52 42 43 58 65 62 59 55 50 48 45 43 39 40 44 40 45 51 54 56 55
62 62 62 62 62 62 62 62 62 62 63 65 64 63 61 60 60 61 61 61 61 61 61 61 61 59 47 38 54 57 56 57 55 52 49 49 47 48 42 42 42 45 47 49 53 54 51
62 62 62 62 62 61 61 62 62 62 63 63 63 63 61 60 59 59 61 61 61 61 60 60 60 56 46 44 54 56 56 53 53 51 47 51 51 43 47 41 47 46 42 47 49 50 47
62 62 61 61 61 61 62 62 61 61 62 63 63 63 61 59 58 58 59 60 59 60 59 59 60 54 40 55 53 55 56 53 53 52 50 51 52 46 44 48 44 40 42 37 45 47 48
61 61 61 61 61 60 61 61 61 61 61 61 62 62 60 59 58 57 59 59 59 59 59 59 53 46 40 58 51 54 53 49 50 52 51 54 50 44 46 40 37 40 33 36 40 49 47
61 60 60 60 60 60 61 61 60 61 61 60 60 60 60 58 57 58 58 59 58 57 56 56 54 42 46 45 48 51 53 52 47 48 46 45 43 37 36 38 30 34 33 36 37 44 46
60 60 60 59 60 60 60 60 60 60 60 59 59 58 59 57 56 56 54 49 44 41 44 41 43 43 47 47 49 48 50 48 49 45 38 44 37 33 33 41 39 39 37 35 41 45 43
60 59 59 59 59 59 59 59 59 59 59 59 59 58 58 57 56 56 50 43 46 47 39 46 47 46 49 48 42 46 52 44 43 37 42 39 33 42 43 42 40 40 37 34 39 45 43
60 60 60 60 59 59 59 59 58 59 59 58 58 58 56 56 55 51 48 47 52 50 38 44 47 46 45 47 44 44 49 45 40 38 39 34 39 45 43 40 38 40 38 37 38 42 44
60 59 59 60 59 59 59 59 58 58 57 57 56 57 56 55 49 50 46 53 52 50 26 37 41 45 46 46 42 51 49 45 42 38 41 39 44 43 40 39 39 36 45 43 40 38 32
59 59 59 59 59 58 58 58 58 58 57 56 56 57 56 56 48 46 51 52 51 46 15 38 41 52 48 42 44 46 51 45 40 40 38 37 40 38 39 40 42 39 45 41 41 36 36
59 59 59 59 58 58 58 58 58 57 57 56 55 55 55 51 49 51 53 52 47 28 18 32 42 40 39 42 43 46 45 47 48 43 41 40 47 44 41 45 46 47 42 40 40 36 29
58 58 58 58 58 58 58 58 57 57 56 55 55 55 52 53 46 53 51 46 26 21 35 31 35 40 38 37 40 42 41 40 36 32 33 35 40 45 46 42 46 43 37 29 27 27 27
58 58 58 58 57 58 58 57 57 57 55 54 53 54 53 53 53 52 48 35 20 32 31 40 39 38 33 36 37 38 37 35 40 36 30 30 30 39 45 41 39 37 37 30 24 25 27
58 58 57 57 56 57 56 56 56 56 55 53 52 50 49 51 52 50 40 27 26 31 38 37 38 31 31 35 34 34 31 34 36 35 30 27 32 43 43 45 43 38 30 38 31 30 24
56 56 57 57 56 55 55 55 55 56 55 53 43 45 45 52 51 46 35 31 32 39 42 40 31 33 28 31 30 30 32 36 37 40 37 33 30 39 43 46 44 40 44 33 31 25 25
56 56 56 56 56 55 54 54 55 55 55 53 43 40 47 51 49 39 31 31 38 42 44 39 34 32 31 31 32 30 31 37 40 39 39 35 32 32 38 35 36 36 34 35 34 30 25
57 56 56 56 55 54 54 54 54 55 54 49 41 33 48 50 36 37 33 37 44 41 43 41 41 39 34 34 31 31 32 34 42 41 34 36 31 27 30 38 41 39 36 35 28 26 22
56 55 56 55 54 54 54 54 54 54 53 44 37 38 48 47 32 34 37 40 40 40 40 40 40 42 40 35 31 33 35 42 43 40 36 37 29 20 27 33 37 35 37 35 33 30 24
56 55 55 54 54 54 54 54 54 54 54 46 38 33 40 41 41 36 33 34 35 42 41 43 43 43 39 35 37 33 35 41 43 42 48 43 31 28 22 28 32 31 33 35 32 21 26
55 55 54 54 54 54 54 54 53 53 53 44 39 35 40 32 35 35 34 35 36 36 42 42 42 44 39 33 33 33 37 38 43 45 40 38 28 26 31 34 33 33 34 33 29 31 28
55 54 54 54 54 54 54 54 53 52 52 42 37 37 39 35 39 34 35 32 37 40 42 36 39 44 42 35 36 34 38 37 35 39 35 36 27 29 27 33 33 31 33 33 33 34 33
55 54 53 54 54 54 53 53 53 52 50 42 43 44 40 36 35 34 33 33 39 43 43 43 41 39 41 42 41 40 40 40 40 37 35 34 29 26 22 28 30 27 31 33 33 33 35
54 53 54 54 54 54 53 53 52 52 50 45 43 43 38 33 34 36 37 36 41 42 40 38 41 41 40 44 44 44 42 43 40 37 42 35 30 26 19 25 16 32 35 35 35 36 37
53 53 54 54 54 53 53 52 52 52 53 44 42 41 38 31 35 37 35 35 38 40 39 38 39 40 45 42 38 37 36 38 39 37 38 41 33 28 20 18 27 30 33 34 33 34 37
53 54 54 54 53 53 53 53 53 52 50 43 41 42 39 34 31 30 34 39 37 33 35 37 42 45 44 40 36 30 26 28 26 33 41 38 40 32 30 20 21 31 35 40 38 28 36
54 53 53 53 53 53 53 52 52 52 51 45 41 43 40 29 29 29 34 37 40 36 32 35 40 42 41 32 33 28 24 29 25 27 28 33 34 31 30 23 27 35 37 39 27 30 36
53 53 53 53 53 53 52 52 52 52 51 45 39 43 40 29 30 33 35 36 39 37 33 36 40 41 36 33 32 30 26 28 26 27 27 28 26 30 31 27 20 36 36 33 36 34 36
53 53 53 53 53 52 51 52 52 53 52 49 40 45 43 33 32 36 38 40 37 35 35 33 34 33 35 29 29 29 29 26 26 24 28 27 31 28 30 29 36 34 34 35 37 36 35
MSLP
1022.94 1022.47 1022.04 1021.47 1020.99 1020.66 1019.79 1019.19 1018.58 1017.87 1017.08 1015.76 1015.97 1016.33 1016.70 1016.84 1016.88 1016.87 1016.63 1016.60 1016.39 1016.19 1016.04 1015.67 1015.68 1015.78 1016.03 1016.13 1015.17 1014.03 1013.61 1013.56 1013.56 1013.77 1013.87 1014.03 1014.04 1013.89 1013.02 1012.53 1012.79 1012.87 1011.50 1010.89 1010.44 1009.89 1010.28
1022.75 1022.40 1021.89 1021.43 1020.98 1020.51 1019.94 1019.26 1018.62 1017.90 1016.91 1015.60 1015.39 1015.69 1016.08 1016.49 1016.78 1016.60 1016.48 1016.40 1016.17 1015.84 1015.93 1015.54 1015.52 1015.80 1016.11 1015.63 1014.25 1014.00 1013.75 1013.51 1013.51 1013.66 1013.79 1013.84 1013.63 1013.47 1013.08 1012.34 1012.42 1012.07 1011.68 1011.00 1010.54 1010.21 1010.56
1022.84 1022.35 1021.94 1021.40 1020.89 1020.54 1019.82 1019.05 1018.67 1017.95 1017.24 1016.28 1015.90 1015.51 1015.40 1016.03 1016.29 1016.36 1016.25 1016.26 1016.10 1015.71 1015.75 1015.32 1015.43 1015.59 1015.78 1014.88 1013.93 1013.75 1013.69 1013.57 1013.59 1013.75 1013.83 1013.51 1013.45 1013.48 1012.70 1012.01 1011.63 1011.72 1011.75 1011.31 1010.83 1010.92 1011.08
1022.73 1022.24 1021.95 1021.44 1020.96 1020.35 1019.60 1019.03 1018.55 1017.86 1017.15 1016.34 1015.58 1015.04 1014.73 1015.19 1015.67 1016.01 1016.04 1016.06 1015.84 1015.78 1015.52 1015.33 1015.26 1015.39 1015.16 1013.80 1013.81 1013.68 1013.58 1013.47 1013.48 1013.61 1013.74 1013.39 1013.25 1012.89 1012.09 1010.96 1010.86 1011.28 1011.64 1011.41 1011.11 1011.30 1012.06
1022.57 1022.29 1022.01 1021.43 1020.80 1020.19 1019.55 1018.97 1018.23 1017.74 1017.21 1016.25 1015.34 1014.61 1014.32 1014.73 1015.00 1015.29 1015.68 1015.87 1015.49 1015.47 1015.31 1015.17 1015.30 1015.45 1014.50 1013.53 1013.79 1013.63 1013.55 1013.59 1013.53 1013.27 1013.24 1013.18 1013.13 1012.53 1011.36 1011.00 1010.80 1011.12 1011.13 1011.36 1011.25 1011.21 1012.27
1022.57 1022.35 1021.89 1021.34 1020.77 1020.28 1019.48 1019.07 1018.39 1017.71 1017.04 1016.29 1015.30 1014.72 1014.22 1014.39 1014.71 1014.90 1015.18 1015.34 1015.19 1015.35 1015.13 1015.08 1015.20 1015.70 1014.23 1013.83 1013.80 1013.69 1013.56 1013.62 1013.44 1013.17 1012.80 1012.89 1012.60 1012.37 1011.98 1011.28 1010.51 1010.75 1011.58 1011.52 1011.20 1010.99 1011.46
1022.75 1022.39 1021.73 1021.39 1020.84 1020.26 1019.65 1019.01 1018.31 1017.66 1016.86 1016.12 1015.32 1014.79 1013.73 1014.19 1014.70 1014.72 1015.13 1015.58 1015.79 1015.66 1015.04 1014.22 1013.95 1013.74 1013.46 1013.82 1013.79 1013.63 1013.48 1013.43 1013.38 1013.15 1012.65 1012.06 1012.12 1011.81 1011.31 1011.06 1010.61 1010.26 1010.92 1011.45 1011.94 1011.83 1011.94
1022.62 1022.23 1021.71 1021.09 1020.60 1020.11 1019.53 1018.98 1018.23 1017.51 1016.67 1015.91 1015.36 1014.57 1013.41 1013.99 1014.29 1014.55 1014.99 1015.33 1015.01 1014.81 1014.11 1013.58 1013.58 1013.46 1013.31 1013.46 1013.64 1013.36 1013.29 1013.37 1013.05 1012.67 1012.25 1011.96 1011.40 1011.13 1011.18 1011.06 1010.66 1010.76 1010.93 1011.53 1011.73 1011.52 1011.26
1022.44 1021.79 1021.17 1020.62 1020.16 1019.69 1019.23 1018.76 1018.30 1017.32 1016.63 1016.13 1015.32 1014.83 1014.04 1013.82 1014.23 1014.57 1014.49 1014.45 1014.46 1014.63 1014.25 1013.14 1012.85 1012.85 1013.07 1013.53 1013.27 1013.05 1013.17 1013.07 1012.84 1012.42 1011.96 1011.45 1011.16 1010.79 1010.37 1010.39 1010.84 1010.51 1010.04 1010.49 1010.58 1011.72 1011.64
1021.86 1021.23 1020.78 1020.29 1019.95 1019.48 1018.97 1018.35 1017.80 1017.23 1016.69 1016.01 1015.35 1014.48 1014.30 1013.93 1014.62 1014.14 1014.03 1013.61 1014.50 1014.63 1014.31 1013.05 1012.48 1012.33 1012.85 1012.94 1012.77 1012.72 1013.02 1013.02 1012.31 1012.01 1011.60 1011.27 1011.00 1010.55 1010.62 1010.67 1010.88 1010.60 1010.24 1010.32 1011.17 1011.61 1012.65
1021.65 1021.30 1020.78 1020.28 1019.73 1019.35 1018.58 1018.10 1017.49 1016.92 1016.45 1015.83 1015.06 1014.07 1013.97 1013.51 1013.56 1013.88 1013.46 1013.48 1014.44 1014.58 1014.40 1012.86 1012.25 1011.89 1012.27 1012.70 1012.38 1012.26 1012.50 1012.46 1011.88 1011.53 1011.63 1011.33 1010.81 1010.73 1010.48 1010.57 1010.73 1010.53 1010.31 1010.65 1011.27 1011.60 1012.20
1021.55 1021.08 1020.54 1020.04 1019.58 1019.15 1018.60 1018.05 1017.45 1016.81 1016.04 1015.43 1014.83 1014.31 1013.47 1013.58 1013.74 1013.35 1013.32 1013.73 1014.66 1015.14 1013.65 1012.45 1012.05 1011.89 1012.22 1012.22 1012.15 1012.06 1011.92 1012.14 1011.37 1011.30 1011.16 1011.12 1010.80 1010.58 1010.53 1010.38 1010.13 1010.48 1010.49 1010.47 1011.43 1012.05 1013.18
1021.24 1020.74 1020.28 1019.76 1019.29 1018.78 1018.19 1017.64 1017.03 1016.36 1015.56 1014.84 1014.14 1014.04 1014.27 1013.25 1012.77 1012.84 1013.35 1014.22 1015.05 1014.37 1012.99 1012.48 1012.03 1011.85 1011.97 1011.99 1011.85 1011.74 1011.61 1011.48 1011.27 1011.69 1011.28 1011.52 1010.99 1010.80 1010.77 1010.79 1010.91 1010.85 1011.24 1011.85 1012.44 1012.92 1013.08
1020.97 1020.41 1019.91 1019.39 1018.83 1018.19 1017.67 1017.12 1016.46 1015.75 1014.95 1014.06 1013.02 1012.10 1012.13 1012.76 1012.71 1012.77 1013.60 1014.55 1014.36 1012.60 1012.23 1011.58 1011.56 1011.81 1012.03 1012.09 1011.96 1011.70 1011.65 1011.64 1011.25 1011.43 1011.61 1011.74 1011.81 1011.78 1011.25 1011.42 1011.38 1011.78 1011.80 1011.93 1012.30 1012.73 1013.10
1020.47 1019.89 1019.45 1019.02 1018.40 1017.73 1017.29 1016.65 1015.89 1015.03 1014.28 1013.86 1013.21 1010.63 1011.18 1011.93 1012.62 1012.65 1013.53 1013.89 1012.03 1011.38 1011.00 1010.95 1011.47 1011.89 1012.18 1012.08 1012.24 1011.88 1011.68 1011.51 1011.28 1011.35 1011.64 1012.08 1012.58 1012.27 1011.86 1011.65 1011.91 1012.01 1011.95 1011.48 1011.95 1012.74 1013.13
1020.36 1019.74 1019.08 1018.45 1017.89 1017.50 1016.95 1016.41 1015.61 1014.49 1013.87 1013.59 1012.96 1010.90 1010.63 1011.08 1012.25 1012.86 1013.49 1012.67 1011.49 1010.60 1010.07 1010.28 1010.97 1011.50 1012.11 1012.26 1012.33 1011.96 1011.63 1011.35 1011.25 1011.02 1011.24 1011.96 1012.79 1012.85 1012.48 1012.21 1012.27 1011.81 1011.60 1011.82 1012.06 1013.33 1013.78
1019.64 1019.28 1018.58 1017.91 1017.35 1017.02 1016.56 1016.00 1015.29 1014.25 1013.52 1013.03 1011.88 1010.75 1010.54 1011.12 1012.09 1012.99 1012.60 1011.93 1010.93 1010.08 1009.47 1009.67 1010.47 1011.29 1011.80 1012.12 1012.33 1012.18 1011.87 1011.39 1011.14 1011.29 1011.42 1011.90 1012.50 1013.59 1013.23 1013.20 1012.63 1012.14 1011.76 1011.94 1012.63 1014.01 1014.59
1019.00 1018.43 1018.03 1017.43 1016.99 1016.60 1015.99 1015.41 1014.85 1013.98 1013.43 1013.05 1012.52 1011.71 1010.68 1011.04 1012.03 1012.13 1011.87 1011.41 1010.52 1009.80 1009.32 1009.21 1009.64 1010.51 1011.43 1012.00 1012.15 1011.94 1011.61 1011.35 1011.02 1011.02 1011.68 1012.09 1012.93 1013.71 1013.90 1013.30 1013.03 1012.87 1012.56 1012.66 1013.43 1015.07 1015.65
1018.62 1018.16 1017.58 1016.97 1016.51 1016.05 1015.55 1014.82 1014.29 1013.83 1013.53 1013.35 1012.64 1011.74 1010.81 1010.98 1011.33 1011.60 1011.69 1011.24 1010.43 1009.72 1009.09 1009.05 1009.43 1009.87 1010.81 1011.40 1011.91 1011.76 1011.44 1011.16 1010.99 1011.22 1011.79 1012.28 1013.63 1014.85 1014.50 1013.55 1012.73 1012.35 1012.32 1012.98 1013.87 1015.14 1015.98
1018.04 1017.52 1016.99 1016.47 1015.79 1015.39 1014.98 1014.46 1013.82 1013.43 1013.31 1013.35 1012.80 1011.58 1010.92 1011.31 1011.46 1011.70 1011.75 1011.56 1010.56 1009.42 1009.05 1008.83 1009.09 1009.56 1010.37 1011.13 1011.29 1011.51 1011.42 1011.24 1011.11 1011.45 1011.81 1012.33 1013.86 1014.68 1015.14 1014.48 1013.92 1013.73 1013.53 1013.75 1014.37 1015.44 1015.47
1017.41 1017.00 1016.43 1015.75 1015.22 1014.75 1014.30 1013.90 1013.55 1013.11 1013.04 1013.39 1012.38 1011.42 1011.01 1011.12 1011.66 1012.00 1012.06 1011.27 1010.39 1009.41 1009.01 1008.81 1009.25 1009.48 1010.13 1011.12 1011.48 1011.61 1011.69 1011.75 1011.76 1011.90 1012.35 1012.94 1014.32 1015.06 1015.53 1015.25 1014.61 1014.18 1014.07 1014.11 1014.40 1014.65 1014.77
1016.79 1016.50 1015.79 1015.16 1014.58 1014.18 1013.72 1013.26 1012.85 1012.71 1012.55 1012.57 1011.73 1011.13 1011.12 1011.40 1011.42 1012.00 1011.99 1011.19 1010.16 1009.41 1009.15 1009.40 1009.40 1009.71 1010.07 1010.93 1011.24 1011.58 1011.63 1011.81 1012.08 1012.67 1013.19 1013.78 1015.17 1015.60 1016.02 1015.39 1014.81 1014.54 1014.41 1014.34 1014.44 1014.52 1014.43
1016.20 1015.84 1015.10 1014.26 1013.86 1013.46 1012.98 1012.66 1012.14 1012.07 1012.22 1011.55 1010.64 1010.93 1011.13 1011.43 1011.47 1011.73 1011.65 1011.28 1010.29 1009.68 1009.67 1009.55 1009.83 1010.23 1010.59 1010.73 1011.07 1011.42 1011.61 1012.02 1012.26 1012.92 1013.57 1014.39 1015.50 1016.31 1016.88 1016.25 1015.54 1014.75 1013.76 1013.86 1013.95 1013.86 1013.99
1015.61 1015.15 1014.42 1013.67 1013.08 1012.59 1012.24 1011.77 1011.52 1011.25 1011.17 1011.07 1010.67 1010.73 1011.15 1011.70 1011.74 1011.44 1011.53 1011.51 1010.56 1010.13 1010.14 1010.42 1010.24 1010.43 1011.22 1010.82 1011.22 1011.64 1012.15 1012.52 1012.88 1013.42 1013.55 1014.59 1015.65 1016.65 1017.36 1016.86 1016.02 1014.42 1013.80 1013.59 1013.77 1013.81 1013.85
1015.17 1014.40 1013.79 1013.16 1012.54 1012.15 1011.64 1011.28 1010.85 1010.18 1009.22 1010.19 1010.63 1010.71 1011.11 1011.58 1011.65 1011.71 1011.84 1011.66 1010.93 1011.02 1010.99 1011.03 1011.08 1011.14 1011.05 1011.27 1012.24 1012.81 1013.33 1013.41 1013.94 1014.20 1014.26 1014.35 1015.46 1016.95 1017.48 1017.27 1015.82 1014.28 1014.15 1013.99 1013.90 1013.84 1013.85
1014.67 1013.82 1013.16 1012.70 1012.01 1011.45 1010.92 1010.43 1009.87 1009.26 1009.17 1010.14 1010.83 1010.79 1011.01 1011.78 1012.84 1012.79 1012.24 1011.71 1011.42 1011.63 1011.92 1011.93 1011.67 1011.39 1011.49 1012.44 1013.21 1013.89 1014.39 1014.45 1014.72 1014.83 1014.85 1014.93 1015.23 1016.38 1017.28 1017.09 1015.89 1014.59 1013.90 1013.57 1013.73 1014.28 1014.19
1014.08 1013.38 1012.59 1011.98 1011.34 1010.59 1010.14 1009.81 1009.20 1009.12 1009.24 1009.61 1010.85 1010.69 1011.13 1012.48 1013.52 1013.44 1012.82 1012.19 1011.74 1012.03 1012.63 1012.61 1012.27 1012.08 1012.18 1013.18 1014.19 1014.78 1015.16 1015.23 1015.38 1015.43 1015.53 1015.60 1015.87 1016.32 1016.77 1016.74 1015.51 1014.24 1013.93 1013.93 1014.57 1015.42 1014.72
1013.69 1013.03 1012.19 1011.38 1010.62 1010.00 1009.44 1009.03 1008.60 1008.54 1009.30 1009.19 1011.28 1010.98 1011.12 1013.01 1014.06 1013.85 1013.38 1012.80 1012.48 1012.38 1012.95 1013.20 1013.05 1013.08 1013.39 1014.09 1015.00 1015.35 1015.71 1015.71 1015.75 1015.79 1015.75 1015.86 1016.21 1016.41 1016.75 1016.56 1015.53 1014.26 1014.37 1014.67 1014.85 1014.91 1014.94
1013.23 1012.68 1011.89 1011.13 1010.27 1009.62 1008.69 1007.90 1007.84 1008.48 1008.84 1009.02 1010.88 1011.10 1011.65 1012.70 1014.32 1014.22 1013.92 1013.68 1013.62 1013.41 1013.21 1013.56 1013.65 1013.49 1013.76 1014.34 1015.38 1015.83 1016.13 1016.35 1016.15 1016.37 1016.02 1016.00 1015.63 1016.00 1016.13 1015.44 1014.72 1014.66 1014.80 1014.81 1014.86 1015.15 1015.40
Wind_Speed
22 23 25 24 24 26 25 25 24 25 27 17 18 14 15 12 14 12 14 14 14 15 11 12 8 6 3 1 9 7 10 6 2 1 3 5 6 4 8 5 12 21 12 12 10 12 12
22 24 24 25 25 24 25 25 25 25 26 21 14 14 13 9 12 13 14 13 15 14 12 10 9 3 3 7 4 4 6 4 1 2 4 5 7 3 7 6 10 9 16 7 10 11 4
22 23 24 24 25 24 25 25 26 25 24 22 16 16 12 10 8 13 14 14 15 11 11 10 8 3 3 12 4 6 3 1 0 1 3 5 4 2 5 4 14 19 10 7 6 5 6
21 23 24 24 24 25 26 25 25 26 25 23 21 24 15 9 7 11 13 13 14 13 10 8 8 1 6 4 5 4 1 2 1 3 3 7 4 5 10 3 3 8 6 7 3 12 8
24 23 24 24 24 24 25 25 25 25 27 27 25 28 12 9 6 8 11 15 14 13 9 8 2 3 7 2 4 3 2 3 4 4 5 6 3 4 3 5 4 7 2 7 2 12 10
22 23 24 25 25 25 25 26 27 28 27 28 28 29 12 9 6 6 9 14 13 9 3 1 1 2 4 3 3 4 2 2 4 6 4 4 4 2 4 5 6 7 6 3 4 2 15
22 24 23 23 23 24 26 26 28 26 27 28 28 34 11 7 3 2 4 4 3 3 2 8 6 4 1 1 0 1 3 1 3 5 3 3 2 4 2 7 3 6 6 9 5 4 5
23 22 23 24 24 25 26 26 27 27 27 27 28 31 12 8 4 0 4 3 5 4 5 9 3 5 2 3 2 1 3 1 2 2 3 3 2 3 12 8 7 4 10 5 8 9 5
24 24 24 26 27 27 26 27 26 27 26 27 27 21 4 7 3 1 4 5 3 3 1 3 5 4 3 5 2 2 1 3 3 4 5 2 1 2 5 9 3 3 7 8 4 5 9
24 26 27 27 26 28 28 28 26 27 29 27 29 29 22 9 2 3 3 4 4 1 4 3 3 3 4 2 3 3 5 3 4 2 4 2 2 3 5 4 4 3 8 10 14 5 1
24 24 25 25 26 27 28 29 29 30 27 27 30 29 29 13 5 3 1 6 3 3 3 1 3 2 4 3 2 3 5 5 4 3 2 1 2 4 3 3 5 5 8 9 10 9 6
24 25 24 25 25 26 27 27 28 29 27 27 28 28 20 6 1 2 5 6 3 5 7 2 4 2 1 3 3 2 5 5 5 4 3 2 1 2 2 6 6 8 11 9 6 5 4
25 25 25 26 27 28 27 27 28 29 28 29 28 33 13 3 4 7 5 3 4 4 2 4 5 4 2 1 3 0 1 3 2 1 3 3 5 3 4 6 1 5 3 3 3 2 1
25 25 26 27 28 28 27 27 29 30 30 30 32 38 11 7 3 9 4 3 2 3 6 3 4 4 2 2 1 2 2 2 1 1 3 4 3 7 8 3 6 3 3 2 4 4 3
25 26 26 27 29 31 29 29 29 27 26 30 30 2 8 6 5 3 4 3 8 7 7 8 4 3 1 1 1 2 1 1 2 2 5 4 5 4 4 3 2 3 3 3 6 3 5
26 27 29 27 29 30 28 27 29 28 25 27 11 4 4 11 9 5 2 6 4 3 4 5 5 3 5 3 2 1 2 1 1 3 1 2 6 3 4 6 4 2 2 1 4 4 3
26 27 27 28 29 29 27 26 27 28 28 26 5 3 5 11 6 4 5 6 3 7 4 6 5 4 3 5 4 2 2 2 1 2 3 3 4 1 2 1 2 2 2 5 5 4 3
27 26 28 28 29 28 27 26 26 26 25 9 4 3 3 9 4 3 3 3 4 4 2 3 5 5 5 5 3 2 3 1 3 0 3 2 5 4 2 2 3 4 2 3 5 1 2
28 27 28 28 28 27 26 26 25 24 19 6 3 3 4 2 3 4 1 3 3 3 3 4 4 4 4 6 4 1 2 4 0 3 3 3 3 4 9 6 5 5 5 5 6 3 1
27 27 28 29 27 27 25 25 25 22 17 6 4 2 1 2 1 2 4 3 5 3 2 3 4 5 4 3 3 4 2 3 3 3 8 5 4 4 7 3 1 2 1 3 4 4 3
27 28 28 29 27 27 26 24 23 18 16 6 3 3 2 4 5 3 3 4 5 4 1 1 3 2 6 4 2 2 2 2 4 4 5 4 4 4 4 4 2 2 3 3 3 4 5
27 28 29 29 27 26 25 23 22 17 18 5 3 3 2 1 7 7 5 4 6 1 4 3 6 4 5 6 6 8 5 3 2 5 3 4 1 3 5 7 5 1 2 4 3 3 3
27 28 28 28 26 26 25 23 18 19 14 5 1 2 2 2 4 7 5 4 6 5 6 6 7 6 4 5 3 4 5 5 5 4 2 4 4 3 3 5 6 5 5 5 3 2 5
27 28 28 28 27 26 25 23 18 23 19 3 2 3 3 2 2 4 4 4 7 0 6 3 4 5 1 5 6 6 8 9 9 7 3 5 4 3 2 3 2 5 1 1 4 3 6
28 28 27 26 26 27 24 21 20 25 12 3 1 2 2 2 2 5 5 6 4 5 4 4 4 1 5 6 5 5 5 3 4 5 4 3 4 4 3 2 5 1 2 4 5 5 5
27 27 27 27 27 25 23 18 21 20 19 5 1 2 2 5 1 3 2 5 3 3 4 3 3 2 5 4 3 3 4 3 1 3 3 5 5 5 2 3 4 4 1 3 2 5 2
25 27 28 28 27 23 20 21 23 8 13 5 3 2 3 5 3 3 0 2 2 5 4 2 1 3 2 3 3 2 2 2 4 6 5 3 2 3 2 2 8 5 2 1 5 5 3
24 26 28 27 26 22 24 22 20 15 17 6 2 1 4 4 2 3 4 3 2 2 5 3 3 2 3 4 3 2 3 4 3 3 5 5 5 3 3 1 7 2 3 5 4 1 4
23 24 26 25 22 27 32 22 5 22 14 7 4 3 3 6 3 1 1 3 3 2 3 3 2 2 4 5 1 3 2 2 4 3 1 3 6 6 8 7 2 1 1 1 3 4 3
Wind_Direction
354 354 350 344 343 342 343 341 338 338 334 276 242 251 268 279 294 301 304 301 302 301 300 293 306 306 54 317 255 279 304 331 68 172 237 256 235 227 224 176 177 252 258 211 251 195 195
354 348 349 348 345 342 340 338 337 340 340 323 238 243 248 262 281 297 295 298 293 297 293 290 304 35 120 267 246 301 328 298 308 321 262 232 248 243 285 202 197 235 227 252 214 226 178
352 352 352 346 342 343 341 341 341 339 338 338 332 285 237 247 275 290 301 298 299 292 289 288 299 298 221 254 249 301 311 247 205 229 269 257 226 135 273 184 213 234 208 225 215 221 244
352 353 349 344 341 338 340 343 342 344 338 332 333 316 222 219 244 286 297 293 299 290 279 270 279 167 250 231 240 259 7 288 147 232 238 269 243 256 226 330 184 189 226 189 136 147 166
352 354 348 346 345 347 342 342 345 342 339 337 328 334 212 208 216 271 294 296 293 277 265 262 236 144 265 323 254 309 199 253 302 252 229 258 185 272 322 242 149 154 143 187 143 178 168
353 350 348 347 347 347 345 347 345 345 343 344 338 336 208 194 224 280 308 306 294 275 285 20 194 254 265 285 290 330 293 269 259 314 285 204 222 8 354 223 183 140 132 151 134 90 179
355 348 351 346 346 345 344 347 342 339 344 347 344 336 197 176 204 338 349 10 360 250 254 194 194 223 103 182 85 235 257 224 217 220 267 215 195 225 338 91 68 92 97 106 74 119 169
351 345 344 345 347 344 346 344 339 339 342 344 338 342 171 162 155 257 113 169 252 296 296 222 236 267 208 144 253 259 269 275 286 298 259 243 250 171 140 165 50 52 133 108 81 9 126
343 343 345 346 344 342 343 341 343 342 341 344 336 344 239 152 163 152 182 200 301 292 249 269 190 185 194 159 226 269 237 341 261 244 233 256 37 273 96 90 63 207 168 162 99 88 34
342 344 340 339 342 337 341 339 341 343 343 335 338 330 327 151 170 166 209 181 215 241 54 236 222 245 127 191 238 171 197 254 226 269 270 336 333 207 114 125 86 127 166 139 132 134 9
337 334 334 338 336 336 338 338 340 340 341 330 336 325 330 166 129 192 189 126 115 58 9 217 177 131 125 194 238 201 149 197 246 225 188 35 103 80 109 128 135 82 101 119 118 91 68
327 325 328 330 330 330 330 332 335 336 332 332 332 329 314 166 195 241 115 94 52 50 255 182 148 209 224 176 221 144 229 208 252 18 52 179 266 69 139 108 178 120 80 57 70 90 159
324 324 326 327 326 323 323 327 330 331 331 331 322 314 296 224 199 157 115 93 56 184 353 214 201 154 197 339 358 283 346 8 318 86 28 353 29 32 65 87 98 52 53 90 69 36 46
323 324 324 323 320 317 319 325 325 327 329 332 331 311 252 184 246 137 118 77 185 191 202 189 147 106 164 78 301 307 1 53 295 80 66 58 47 359 344 59 103 49 49 181 143 142 147
318 320 323 324 321 322 329 327 323 322 328 333 331 233 140 173 158 111 107 165 218 198 177 143 90 136 130 1 158 2 356 101 287 26 102 98 46 318 28 36 93 240 217 252 110 62 72
323 322 319 323 322 323 325 323 320 318 324 323 319 255 166 144 139 125 170 231 244 211 147 114 132 163 153 203 148 20 313 58 21 7 133 137 92 21 5 27 350 250 299 107 4 115 87
317 319 316 319 321 324 324 321 319 317 324 334 298 301 130 125 132 157 210 229 267 242 162 128 151 129 159 173 169 177 313 344 326 89 113 132 94 184 87 151 212 289 296 55 96 49 111
321 317 316 321 323 322 321 320 320 319 328 354 289 295 146 143 147 183 192 191 241 208 183 116 119 108 141 156 142 202 154 177 327 286 53 18 113 67 154 251 246 227 139 99 103 231 62
318 322 316 321 318 320 320 319 322 319 335 319 294 259 147 154 159 159 292 282 288 214 156 136 117 117 146 161 136 174 113 320 291 74 124 172 35 59 350 349 351 28 17 69 90 81 173
314 318 317 319 318 318 319 317 319 318 334 319 260 266 144 130 70 102 110 266 263 268 122 117 118 117 113 99 36 163 100 357 22 74 64 89 104 137 169 189 127 116 164 106 101 92 170
313 319 317 318 318 318 319 318 317 312 326 337 256 220 258 165 186 123 152 242 201 173 120 162 89 156 134 112 72 127 127 119 28 21 40 73 84 79 69 69 111 156 178 184 104 162 127
315 318 317 316 319 318 318 318 315 322 333 260 241 200 95 86 153 152 209 274 216 144 133 163 141 132 115 139 181 191 141 124 151 26 58 1 79 68 14 355 15 47 153 170 180 191 249
316 317 315 316 319 319 318 316 320 326 322 271 129 54 96 119 143 174 187 241 223 142 23 136 147 105 115 173 153 117 85 77 112 129 108 77 113 71 315 339 343 333 230 196 215 202 135
315 317 317 320 321 322 322 322 315 312 295 245 258 116 125 150 192 186 152 197 211 272 131 1 94 103 146 111 108 62 61 69 66 30 45 109 89 70 191 9 31 252 70 185 228 259 226
318 317 320 323 322 321 321 312 309 304 307 111 142 110 174 97 175 169 218 195 94 58 52 76 28 18 139 53 72 77 2 50 60 35 52 79 103 87 109 192 284 219 182 174 177 283 202
317 321 321 325 321 318 312 313 319 309 130 104 121 131 119 123 239 360 206 184 140 100 31 42 18 58 62 74 86 121 177 154 198 76 74 73 92 104 151 113 230 241 194 208 126 295 165
320 322 322 324 322 321 325 322 313 294 147 118 73 31 95 101 346 349 214 116 87 96 96 89 154 65 67 87 79 143 212 176 158 163 166 127 90 147 145 247 286 244 229 154 88 239 160
320 322 324 327 327 329 322 322 308 165 157 93 167 87 97 100 2 336 341 15 39 64 130 187 105 14 45 74 120 190 146 215 95 161 175 156 139 168 115 198 274 174 90 163 216 69 146
318 327 327 331 334 335 326 306 107 153 135 95 80 34 40 77 144 263 68 80 43 296 129 38 156 135 161 90 91 122 127 115 153 216 356 204 176 180 180 213 219 318 191 316 168 151 172